{"data":{"norad_id":64613,"intl_designator":"2025-137V","name":"STARLINK-34500","alt_names":[],"object_type":"PAYLOAD","status":"ACTIVE","operator":null,"country":"US","launch_date":"2025-06-25","launch_site_code":"AFETR","launch_vehicle":null,"mission":null,"orbit_class":"UNKNOWN","rcs_meters":null,"size_class":null,"mass_kg":null,"dimensions":null,"purposes":["comms"],"wikipedia_slug":null,"has_3d_model":false,"image_url":null,"decayed_at":null,"tle_current":{"epoch":"2026-09-19T04:56:44.602656Z","epoch_age_seconds":243480,"freshness":"STALE","line1":"1 64613U 25137V   26262.20607179  .00023935  00000+0  71707-3 0  9994","line2":"2 64613  53.1590 153.4977 0001203  89.4616 270.6524 15.34408700 70501","mean_motion":15.344087,"eccentricity":0.0001203,"inclination_deg":53.159,"raan_deg":153.4977,"arg_perigee_deg":89.4616,"mean_anomaly_deg":270.6524,"bstar":0.00071707,"rev_number":7050,"period_min":93.847225970499,"perigee_km":461.85443212568,"apogee_km":463.50033206601,"semimajor_km":6840.8143820958,"source":"CELESTRAK","updated_at":"2026-09-21T09:00:35.394882Z"}}}